Location: Czekanka
(50.4925°N, 19.2643°E)
Time: 02:15:39
(UTC+00:00)

CZ-2C R/B - Pass Details

Date: 18 September 2024
Orbit: 703 x 903 km, 98.2° (Epoch: 09 October)

Event Time Altitude Azimuth Distance (km) Brightness Sun altitude
Rises 02:53:27 0° 3° (N) 3,518 6.8 -14.8°
Reaches altitude 10° 02:57:07 10° 340° (NNW) 2,589 5.7 -14.2°
Maximum altitude 02:59:51 14° 311° (NW) 2,326 5.2 -13.8°
Enters shadow 03:02:04 11° 287° (WNW) 2,499 5.2 -13.5°
